Leonardtown, MD

6:49 PM EST on December 11, 2017 (GMT -0500)
Leonardtown

Weather History for K2W6 - January, 2014

Change the Weather History Date:

Friday, January 31, 2014

  Actual Average (KNHK) Record (KNHK)
Temperature  
Mean Temperature 30 °F -  
Max Temperature 42 °F 42 °F 64 °F (1982)
Min Temperature 17 °F 27 °F 12 °F (1977)
Degree Days  
Heating Degree Days 36    
Moisture  
Dew Point 16 °F    
Average Humidity 60    
Maximum Humidity 86    
Minimum Humidity 29    
Precipitation  
Precipitation 0.00 in - - ()
Sea Level Pressure  
Sea Level Pressure 30.19 in    
Wind  
Wind Speed 1 mph (South)    
Max Wind Speed 6 mph    
Max Gust Speed -    
Visibility 10 miles    
Events      
Averages and records for this station are not official NWS values.
T = Trace of Precipitation, MM = Missing Value Source: NWS Daily Summary

Daily Weather History Graph

Daily Weather History Graph

Search for Another Location

Airport or City:

Trip Planner

Search our weather history database for the weather conditions in past years. The results will help you decide how hot, cold, wet, or windy it might be!

Date:

Astronomy

Jan. 31, 2014 Rise Set
Actual Time 7:12 AM EST 5:27 PM EST
Civil Twilight 6:44 AM EST 5:55 PM EST
Nautical Twilight 6:12 AM EST 6:27 PM EST
Astronomical Twilight 5:41 AM EST 6:58 PM EST
Moon 7:21 AM EST (1/31) 6:47 PM EST (1/31)
Length of Visible Light 11h 11m
Length of Day
10h 15m
New Moon, 1% of the Moon is Illuminated
Jan 31
New Moon
Feb 6
First Quarter
Feb 14
Full
Feb 22
Last Quarter
Mar 1
New

Hourly Weather History & Observations

Time (EST) Temp. Windchill Dew Point Humidity Pressure Visibility Wind Dir Wind Speed Gust Speed Precip Events Conditions
12:03 AM 21.2 °F - 17.6 °F 86% 30.24 in 10.0 mi Calm Calm - N/A   Clear
12:23 AM 21.2 °F 14.9 °F 17.6 °F 86% 30.22 in 10.0 mi SSE 4.6 mph - N/A   Clear
12:43 AM 23.0 °F - 17.6 °F 80% 30.21 in 10.0 mi Calm Calm - N/A   Clear
1:03 AM 23.0 °F - 17.6 °F 80% 30.21 in 10.0 mi Calm Calm - N/A   Clear
1:23 AM 19.4 °F - 14.0 °F 80% 30.21 in 10.0 mi Calm Calm - N/A   Clear
1:43 AM 17.6 °F - 14.0 °F 86% 30.19 in 10.0 mi Calm Calm - N/A   Clear
2:03 AM 17.6 °F - 14.0 °F 86% 30.19 in 10.0 mi Calm Calm - N/A   Clear
2:23 AM 17.6 °F 12.3 °F 14.0 °F 86% 30.18 in 10.0 mi South 3.5 mph - N/A   Clear
2:43 AM 19.4 °F - 14.0 °F 80% 30.17 in 10.0 mi Calm Calm - N/A   Clear
3:03 AM 21.2 °F 16.4 °F 17.6 °F 86% 30.19 in 10.0 mi SW 3.5 mph - N/A   Clear
3:23 AM 23.0 °F - 19.4 °F 86% 30.17 in 10.0 mi Calm Calm - N/A   Clear
3:44 AM 23.0 °F - 19.4 °F 86% 30.15 in 10.0 mi Calm Calm - N/A   Clear
4:04 AM 24.8 °F 20.5 °F 19.4 °F 80% 30.16 in 10.0 mi SW 3.5 mph - N/A   Clear
4:24 AM 24.8 °F - 19.4 °F 80% 30.16 in 10.0 mi Calm Calm - N/A   Clear
4:44 AM 23.0 °F - 17.6 °F 80% 30.17 in 10.0 mi Calm Calm - N/A   Clear
5:04 AM 23.0 °F 17.0 °F 17.6 °F 80% 30.17 in 10.0 mi SSW 4.6 mph - N/A   Clear
5:24 AM 23.0 °F 18.4 °F 17.6 °F 80% 30.17 in 10.0 mi SW 3.5 mph - N/A   Clear
5:44 AM 23.0 °F 17.0 °F 17.6 °F 80% 30.16 in 10.0 mi SSW 4.6 mph - N/A   Clear
6:04 AM 23.0 °F 18.4 °F 15.8 °F 74% 30.17 in 10.0 mi WSW 3.5 mph - N/A   Clear
6:24 AM 21.2 °F 16.4 °F 15.8 °F 80% 30.16 in 10.0 mi SSW 3.5 mph - N/A   Clear
6:44 AM 23.0 °F - 14.0 °F 68% 30.16 in 10.0 mi Calm Calm - N/A   Clear
7:04 AM 23.0 °F 18.4 °F 14.0 °F 68% 30.16 in 10.0 mi SW 3.5 mph - N/A   Clear
7:24 AM 23.0 °F 18.4 °F 14.0 °F 68% 30.17 in 10.0 mi SW 3.5 mph - N/A   Clear
7:44 AM 24.8 °F 20.5 °F 14.0 °F 64% 30.17 in 10.0 mi SW 3.5 mph - N/A   Clear
8:04 AM 26.6 °F 21.2 °F 14.0 °F 59% 30.17 in 10.0 mi SW 4.6 mph - N/A   Clear
8:24 AM 26.6 °F 22.6 °F 14.0 °F 59% 30.18 in 10.0 mi SW 3.5 mph - N/A   Clear
8:44 AM 28.4 °F 24.6 °F 14.0 °F 55% 30.18 in 10.0 mi West 3.5 mph - N/A   Clear
9:04 AM 28.4 °F 22.2 °F 14.0 °F 55% 30.19 in 10.0 mi West 5.8 mph - N/A   Clear
9:24 AM 30.2 °F - 14.0 °F 51% 30.18 in 10.0 mi Calm Calm - N/A   Clear
9:44 AM 30.2 °F 26.7 °F 12.2 °F 47% 30.19 in 10.0 mi WSW 3.5 mph - N/A   Clear
10:04 AM 32.0 °F 28.7 °F 12.2 °F 44% 30.20 in 10.0 mi WSW 3.5 mph - N/A   Clear
10:24 AM 32.0 °F - 10.4 °F 41% 30.20 in 10.0 mi Calm Calm - N/A   Clear
10:44 AM 32.0 °F - 10.4 °F 41% 30.20 in 10.0 mi Calm Calm - N/A   Clear
11:04 AM 33.8 °F - 10.4 °F 38% 30.20 in 10.0 mi Calm Calm - N/A   Clear
11:24 AM 33.8 °F - 10.4 °F 38% 30.20 in 10.0 mi Calm Calm - N/A   Clear
11:44 AM 35.6 °F - 14.0 °F 41% 30.20 in 10.0 mi Calm Calm - N/A   Clear
12:04 PM 35.6 °F 32.8 °F 12.2 °F 38% 30.19 in 10.0 mi East 3.5 mph - N/A   Clear
12:25 PM 35.6 °F - 14.0 °F 41% 30.19 in 10.0 mi Calm Calm - N/A   Clear
12:45 PM 37.4 °F - 12.2 °F 36% 30.18 in 10.0 mi Calm Calm - N/A   Clear
1:05 PM 37.4 °F - 14.0 °F 38% 30.17 in 10.0 mi Calm Calm - N/A   Clear
1:25 PM 39.2 °F - 12.2 °F 33% 30.16 in 10.0 mi Calm Calm - N/A   Clear
1:45 PM 41.0 °F - 14.0 °F 33% 30.16 in 10.0 mi Calm Calm - N/A   Clear
2:05 PM 41.0 °F - 15.8 °F 36% 30.16 in 10.0 mi Calm Calm - N/A   Clear
2:25 PM 41.0 °F 39.0 °F 12.2 °F 31% 30.15 in 10.0 mi ENE 3.5 mph - N/A   Clear
2:45 PM 41.0 °F 39.0 °F 10.4 °F 29% 30.15 in 10.0 mi East 3.5 mph - N/A   Clear
3:05 PM 41.0 °F 38.0 °F 10.4 °F 29% 30.16 in 10.0 mi ESE 4.6 mph - N/A   Clear
3:25 PM 42.8 °F 40.1 °F 14.0 °F 31% 30.16 in 10.0 mi ESE 4.6 mph - N/A   Scattered Clouds
3:45 PM 41.0 °F 39.0 °F 12.2 °F 31% 30.16 in 10.0 mi East 3.5 mph - N/A   Clear
4:05 PM 41.0 °F 38.0 °F 12.2 °F 31% 30.16 in 10.0 mi ESE 4.6 mph - N/A   Clear
4:25 PM 41.0 °F 39.0 °F 12.2 °F 31% 30.18 in 10.0 mi East 3.5 mph - N/A   Clear
4:45 PM 39.2 °F - 14.0 °F 36% 30.19 in 10.0 mi Calm Calm - N/A   Clear
5:05 PM 37.4 °F - 15.8 °F 41% 30.19 in 10.0 mi Calm Calm - N/A   Clear
5:25 PM 37.4 °F - 17.6 °F 45% 30.19 in 10.0 mi Calm Calm - N/A   Clear
5:45 PM 33.8 °F - 15.8 °F 48% 30.19 in 10.0 mi Calm Calm - N/A   Clear
6:05 PM 33.8 °F - 17.6 °F 52% 30.21 in 10.0 mi Calm Calm - N/A   Clear
6:25 PM 32.0 °F - 17.6 °F 55% 30.21 in 10.0 mi Calm Calm - N/A   Clear
6:45 PM 30.2 °F - 21.2 °F 69% 30.23 in 10.0 mi Calm Calm - N/A   Clear
7:05 PM 30.2 °F - 21.2 °F 69% 30.24 in 10.0 mi Calm Calm - N/A   Clear
7:25 PM 30.2 °F - 19.4 °F 64% 30.23 in 10.0 mi Calm Calm - N/A   Clear
7:45 PM 30.2 °F - 21.2 °F 69% 30.24 in 10.0 mi Calm Calm - N/A   Clear
8:05 PM 30.2 °F - 19.4 °F 64% 30.24 in 10.0 mi Calm Calm - N/A   Clear
8:25 PM 30.2 °F - 19.4 °F 64% 30.24 in 10.0 mi Calm Calm - N/A   Clear
8:45 PM 30.2 °F - 17.6 °F 60% 30.24 in 10.0 mi Calm Calm - N/A   Clear
9:06 PM 30.2 °F 26.7 °F 19.4 °F 64% 30.25 in 10.0 mi ESE 3.5 mph - N/A   Clear
9:26 PM 32.0 °F - 19.4 °F 60% 30.25 in 10.0 mi Calm Calm - N/A   Clear
9:46 PM 30.2 °F - 19.4 °F 64% 30.25 in 10.0 mi Calm Calm - N/A   Clear
10:06 PM 30.2 °F - 21.2 °F 69% 30.25 in 10.0 mi Calm Calm - N/A   Clear
10:26 PM 28.4 °F - 21.2 °F 74% 30.26 in 10.0 mi Calm Calm - N/A   Clear
10:46 PM 28.4 °F - 21.2 °F 74% 30.25 in 10.0 mi Calm Calm - N/A   Clear
11:06 PM 28.4 °F - 19.4 °F 69% 30.25 in 10.0 mi Calm Calm - N/A   Clear
11:26 PM 28.4 °F - 21.2 °F 74% 30.25 in 10.0 mi Calm Calm - N/A   Clear
11:46 PM 28.4 °F - 19.4 °F 69% 30.24 in 10.0 mi Calm Calm - N/A   Clear